Location: Unspecified
(0.0000°N, 0.0000°E)
Time: 11:01:29
(UTC+00:00)

STARLINK-1027 - Pass Details

Date: 19 January 2020
Orbit: 549 x 550 km, 53.0° (Epoch: 03 August)

Event Time Altitude Azimuth Distance (km) Brightness Sun altitude
Rises 04:18:26 0° 197° (SSW) 2,659 7.2 -26.1°
Reaches altitude 10° 04:20:52 10° 185° (S) 1,762 6.4 -25.5°
Maximum altitude 04:24:21 29° 124° (SE) 979 5.5 -24.7°
Drops below altitude 10° 04:27:48 10° 63° (ENE) 1,743 6.7 -23.9°
Sets 04:30:11 0° 52° (NE) 2,624 7.5 -23.4°
